Location: Ch�tel-Censoir
(47.5334°N, 3.6339°E)
Time: 02:46:23
(UTC+00:00)

Daily predictions for brighter satellites

Satellite Brightness Start Highest point End
(mag) Time Altitude Azimuth Time Altitude Azimuth Time Altitude Azimuth
SL-16 R/B 4.2 02:02:36 25° NE 02:02:36 25° NE 02:04:53 10° NNE
ADEOS II 4.3 02:00:16 10° NNE 02:02:01 21° NNE 02:02:01 21° NNE
USA 267 4.0 02:07:17 10° ENE 02:11:54 46° E 02:11:54 46° E
COSMOS 2455 4.3 02:27:14 30° ESE 02:27:14 30° ESE 02:32:15 10° NE
Cosmos 2322 Rocket 3.5 02:34:28 34° NNE 02:34:28 34° NNE 02:37:32 10° NNE
IDEFIX/ARIANE 42P 4.4 02:37:48 10° NE 02:42:09 26° E 02:44:01 21° SE
Cosmos 2360 Rocket 3.0 02:45:05 47° ENE 02:45:05 47° ENE 02:49:20 10° NNE
USA 234 3.3 02:42:01 10° ESE 02:47:40 69° ESE 02:47:40 69° ESE
Cosmos 1980 Rocket 4.1 02:52:18 19° N 02:52:18 19° N 02:54:31 10° N
Cosmos 1844 Rocket 4.5 03:07:00 20° SSE 03:07:00 20° SSE 03:08:37 10° SSE
ATLAS 3B R/B 4.1 02:58:31 15° NNW 03:03:18 33° NNE 03:09:20 10° E
Cosmos 2251 Rocket 4.4 03:04:48 44° ESE 03:05:22 46° ESE 03:10:30 10° NNE
Resurs 1-4 Rocket 4.4 03:07:02 10° NNW 03:07:40 12° NNW 03:07:40 12° NNW
Cosmos 2098 Rocket 4.3 03:09:04 54° S 03:11:04 87° E 03:18:34 10° N
Cosmos 1709 Rocket 4.5 03:09:42 26° SSE 03:13:14 59° E 03:19:28 10° NNE
Cosmos 1809 Rocket 4.3 03:13:47 78° NNW 03:13:47 78° NNW 03:19:40 10° N
CENTAUR R/B 4.0 03:10:52 12° NW 03:17:53 46° NE 03:26:02 10° ESE
Cosmos 2278 Rocket 3.7 03:14:31 10° NNW 03:19:42 34° NE 03:24:50 10° ESE
Cosmos 2333 Rocket 3.3 03:17:32 25° SSE 03:20:13 41° ESE 03:25:31 10° NE
ATLAS 2AS CENTAUR R/B 4.4 03:14:22 10° S 03:21:22 35° ESE 03:28:27 10° NE
Cosmos 1844 3.6 03:24:00 85° SW 03:24:00 85° SW 03:29:44 10° SSE
USA 238 DEB 3.9 03:19:19 24° NW 03:24:04 78° NE 03:31:29 10° SE
USA 238 3.9 03:19:24 23° NW 03:24:10 78° NE 03:31:35 10° SE
Cosmos 1975 Rocket 4.4 03:32:12 31° N 03:32:12 31° N 03:34:37 10° N
Lacrosse 4 Rocket 3.9 03:32:28 12° N 03:32:28 12° N 03:33:02 10° N
Meteor 2-21 Rocket 4.3 03:30:55 52° SSW 03:32:34 84° W 03:38:50 10° N
Gblst 52 Del rocket 4.3 03:33:03 55° NNW 03:33:39 58° N 03:39:17 10° ENE
SL-08 ROCKET BODY 4.2 03:33:02 68° SW 03:33:39 76° W 03:39:38 10° N
Cosmos 2333 4.2 03:34:26 51° S 03:35:51 76° ESE 03:41:31 10° NNE
ADEOS 3.7 03:30:49 10° NNE 03:36:03 72° ESE 03:38:15 35° S
Meteor 2-14 Rocket 4.3 03:37:09 60° SW 03:38:03 69° WNW 03:44:14 10° N
Cosmos 1745 Rocket 4.1 03:40:14 52° WNW 03:40:14 52° WNW 03:46:07 10° N
Okean 2 4.2 03:43:41 42° N 03:43:41 42° N 03:46:29 10° N
BREEZE-M R/B 3.5 03:42:48 63° SW 03:43:39 80° SSE 03:52:49 10° ENE
SL-16 R/B 3.4 03:44:29 27° NW 03:44:29 27° NW 03:48:38 10° N
ADEOS II 3.6 03:40:27 10° N 03:42:57 22° NNW 03:42:57 22° NNW
Cosmos 2322 3.6 03:44:05 57° SW 03:45:16 79° WNW 03:51:02 10° NNE
Cosmos 1378 3.5 03:46:03 61° NE 03:46:03 61° NE 03:49:22 10° NNE
Celestis-02/Orion 38 4.5 03:42:02 10° SSE 03:47:12 84° WSW 03:52:32 10° NNW
NOSS 3-2 (A) 4.0 03:44:08 13° NW 03:50:55 89° SW 03:59:19 10° SE
Cosmos 2181 Rocket 3.9 03:46:20 10° N 03:52:45 87° W 03:59:03 10° S
H-2A R/B 2.8 03:49:58 10° NNE 03:54:02 65° ESE 03:56:28 24° S
CBERS 1 LM4 rocket 4.5 03:50:15 10° N 03:55:19 57° WNW 03:55:46 55° W
USA 267 3.5 03:50:25 10° NE 03:56:47 56° NNW 03:59:15 37° W
Cosmos 2219 Rocket 2.2 03:53:56 26° SSW 03:57:08 77° ESE 04:02:45 10° NNE
NOSS 2-2 (E) 3.2 03:56:51 68° S 03:57:10 74° SE 04:01:24 10° NE
Cosmos 2237 4.5 03:57:27 44° WNW 03:58:05 46° NW 04:03:38 10° NNE
Meteor 2-16 Rocket 4.3 03:55:17 32° SSW 03:58:08 65° WNW 04:04:13 10° N
ARIANE 5 R/B 4.3 03:58:21 10° NNW 04:00:09 17° NNW 04:00:09 17° NNW
Cosmos 2237 Rocket 3.7 03:57:39 10° S 04:02:45 36° ESE 04:07:54 10° NE
PSLV R/B 3.4 04:00:09 10° N 04:04:23 62° WNW 04:04:41 60° W
ERBS 4.3 04:06:24 19° SSE 04:07:50 25° SE 04:10:39 10° ENE
Meteor 1-31 Rocket 3.8 04:05:16 10° NNE 04:08:58 45° E 04:12:36 10° S
Cosmos 1025 Rocket 3.0 04:05:35 12° S 04:09:29 82° E 04:13:47 10° N
NOSS 8 (F) 4.4 04:11:13 58° N 04:11:13 58° N 04:13:58 10° NE
COSMOS 2428 2.6 04:07:23 24° SSW 04:11:00 85° WNW 04:16:43 10° NNE
COSMOS 2455 3.0 04:10:26 36° WSW 04:12:44 57° NW 04:18:41 10° NNE
NOSS 3-2 (C) 4.0 04:05:19 10° NW 04:12:49 88° NE 04:21:14 10° SE
Cosmos 2322 Rocket 3.6 04:16:19 20° NW 04:16:45 20° NW 04:20:50 10° N
Cosmos 1470 3.0 04:13:25 10° N 04:17:22 71° E 04:21:15 10° SSE
CZ-2C R/B 2.7 04:12:22 10° NNE 04:17:35 74° ESE 04:22:45 10° S
Cosmos 921 Rocket 2.8 04:15:55 10° NNW 04:20:17 82° WSW 04:24:31 10° SSE
Cosmos 1733 3.3 04:16:41 10° NNW 04:20:26 49° W 04:24:09 10° S
Cosmos 389 Rocket 4.0 04:18:10 10° SSE 04:21:20 36° E 04:24:32 10° NNE
Cosmos 1536 Rocket 3.4 04:18:24 19° SSW 04:21:25 65° W 04:25:45 10° N
IDEFIX/ARIANE 42P 2.8 04:16:56 10° N 04:21:59 48° WNW 04:24:49 24° SW
Cosmos 1842 3.3 04:21:09 37° SW 04:22:25 55° WNW 04:26:20 10° N
Cosmos 1707 3.8 04:20:53 10° SSE 04:24:38 48° E 04:28:26 10° NNE
Cosmos 2360 Rocket 3.2 04:26:53 25° WNW 04:28:11 28° NW 04:33:00 10° N
NOSS 3-4 (A) 4.2 04:25:28 10° SSW 04:31:16 53° ESE 04:37:25 10° NE
NOSS 3-4 (C) 4.2 04:25:33 10° SSW 04:31:22 52° ESE 04:37:31 10° NE
USA 234 4.0 04:26:23 10° S 04:32:04 32° SW 04:35:03 22° W
NOSS 2-2 (D) 3.3 04:33:18 32° WSW 04:34:53 63° NW 04:39:08 10° NE
GP-B 4.3 04:32:04 10° SSE 04:36:18 45° E 04:40:33 10° N
PAYLOAD A 3.8 04:32:11 10° N 04:36:55 63° WNW 04:41:46 10° SSW
ALOS 4.3 04:38:08 10° NNE 04:42:20 32° E 04:46:29 10° SSE
CZ-4B R/B 2.8 04:41:24 10° N 04:45:32 73° WNW 04:49:26 10° SSW
Cosmos 2251 Rocket 4.4 04:45:19 21° W 04:47:51 30° NW 04:52:35 10° N
Cosmos 614 Rocket 4.1 04:43:11 10° SSW 04:48:25 82° ESE 04:53:40 10° NNE
Cosmos 2154 Rocket 4.2 04:42:40 10° S 04:48:51 76° E 04:55:04 10° NNE
Aureole 1 Rocket 4.1 04:44:02 10° SW 04:50:18 44° WNW 04:55:09 10° N
Cosmos 2327 Rocket 4.5 04:46:33 10° S 04:52:49 85° W 04:59:02 10° N
Cosmos 1606 Rocket 3.5 04:48:45 10° N 04:53:06 89° E 04:57:24 10° S
SL-16 R/B 4.0 04:48:38 10° S 04:53:41 35° ESE 04:58:46 10° NE
Cosmos 1356 4.3 04:51:09 10° N 04:54:33 52° ENE 04:57:55 10° SSE
ATLAS 3B R/B 2.6 04:47:57 10° NW 04:54:39 81° SW 05:01:31 10° SSE
Cosmos 292 Rocket 4.1 04:52:48 10° NW 04:57:19 43° WSW 05:01:51 10° S
Cosmos 2184 Rocket 4.0 04:52:55 10° SSW 04:59:02 60° WNW 05:05:16 10° N
Okean 1-7 Rocket 4.3 04:55:02 10° S 04:59:22 59° E 05:03:47 10° NNE
MSX 4.3 04:54:53 10° N 05:00:08 38° WNW 05:05:22 10° SW
Cosmos 2297 4.3 04:55:22 10° NNW 05:01:06 62° ENE 05:06:46 10° SE
Cosmos 44 3.1 04:57:50 10° NW 05:02:09 57° WSW 05:06:22 10° SSE
Cosmos 1943 Rocket 4.2 04:58:22 10° N 05:03:08 27° NE 05:07:53 10° ESE
Cosmos 2278 Rocket 2.5 04:58:32 10° NW 05:03:56 46° WSW 05:09:17 10° S
Cosmos 1726 2.9 05:00:50 10° N 05:04:27 54° ENE 05:08:02 10° SSE
Cosmos 2333 Rocket 2.8 04:59:36 11° WSW 05:04:32 38° NW 05:09:51 10° NNE
Helios 1A Rocket 3.6 05:01:51 10° NNE 05:05:58 59° E 05:10:04 10° S
CENTAUR R/B 3.2 05:01:13 10° NW 05:09:09 67° WSW 05:17:44 10° SSE
Nadezhda 3 Rocket 4.0 05:03:01 10° NNW 05:09:23 72° W 05:15:41 10° S
NOSS 3 (A) 4.4 05:07:07 10° SW 05:09:47 84° SE 05:12:52 10° NE
PSLV R/B 3.6 05:07:11 10° N 05:10:53 61° WNW 05:14:32 10° SSW
Cosmos 1953 2.5 05:07:20 10° NNW 05:11:14 47° W 05:15:05 10° SSW
NOSS 2-2 (C) 4.2 05:08:50 14° W 05:11:36 33° NW 05:15:38 10° NNE
ATLAS 2AS CENTAUR R/B 3.1 05:03:57 10° SW 05:11:58 71° NW 05:20:00 10° NE
Cosmos 1437 Rocket 3.8 05:09:56 10° S 05:13:36 49° E 05:17:17 10° NNE
Cosmos 676 Rocket 4.3 05:09:14 10° SSW 05:14:30 76° ESE 05:19:46 10° NNE
Cosmos 1023 Rocket 4.5 05:09:19 10° SSW 05:14:30 85° WNW 05:19:42 10° NNE
MOS 1-B 4.4 05:08:43 10° NNE 05:14:34 83° WNW 05:20:23 10° SSW
Cosmos 1758 4.4 05:13:55 10° NW 05:17:09 24° W 05:20:23 10° SW
COSMO-SKYMED 1 2.7 05:13:54 10° S 05:18:09 55° W 05:22:26 10° NNW
Meteor 1-4 Rocket 2.6 05:20:37 10° SSW 05:24:02 49° WNW 05:27:27 10° N
SeaSat 1 3.9 05:19:25 10° NE 05:24:09 43° ESE 05:28:49 10° S
METEOR-M 4.4 05:18:58 10° NNE 05:24:21 78° ESE 05:29:41 10° S
Cosmos 1190 Rocket 4.1 05:19:54 10° SW 05:25:07 57° WNW 05:30:22 10° NNE
Gblst 52 Del rocket 4.4 05:20:16 10° WNW 05:25:49 75° NNE 05:31:51 10° ESE
SJ-12 3.9 05:22:28 10° N 05:26:33 70° WNW 05:30:37 10° SSW
USA 116 3.6 05:23:17 10° S 05:27:13 61° WSW 05:30:46 10° NNW
H-2A R/B 4.1 05:26:46 10° NNW 05:29:06 15° WNW 05:31:28 10° W
Cosmos 407 Rocket 3.7 05:24:10 10° SW 05:29:07 47° WNW 05:34:04 10° NNE
Okean O Rocket 1.6 05:27:09 10° NNE 05:31:36 88° WNW 05:36:00 10° SSW
KORONAS-FOTON 4.5 05:29:36 10° S 05:33:19 60° E 05:37:04 10° NNE
RESURS DK-1 3.0 05:29:33 10° SSW 05:33:38 62° ESE 05:37:45 10° NE
Cosmos 1726 Rocket 3.9 05:31:04 10° NNW 05:35:08 41° W 05:39:10 10° SSW
BREEZE-M DEB (TANK) 3.9 05:33:28 10° SW 05:37:54 36° SSE 05:40:28 10° E
